Glendive, MT

3:35 PM MDT on April 24, 2018 (GMT -0600)
Dawson Community

Weather History for KGDV - February, 2013

Change the Weather History Date:

Sunday, February 3, 2013

  Actual Average Record
Temperature  
Mean Temperature 26 °F 21 °F  
Max Temperature 39 °F 32 °F 57 °F (2005)
Min Temperature 14 °F 11 °F -33 °F (1989)
Degree Days  
Heating Degree Days 38 44  
Month to date heating degree days 1149  
Year to date heating degree days 2581  
Since 1 July heating degree days 5569  
Cooling Degree Days 0 0  
Month to date cooling degree days 0  
Year to date cooling degree days 0  
Since 1 July cooling degree days 0  
Moisture  
Dew Point 22 °F    
Average Humidity 79    
Maximum Humidity 100    
Minimum Humidity 61    
Precipitation  
Precipitation 0.00 in 0.01 in 0.01 in (2008)
Month to date precipitation 0.26  
Year to date precipitation 0.62  
Sea Level Pressure  
Sea Level Pressure 29.87 in    
Wind  
Wind Speed 8 mph (SW)    
Max Wind Speed 21 mph    
Max Gust Speed 25 mph    
Visibility 10 miles    
Events      
T = Trace of Precipitation, MM = Missing Value Source: NWS Daily Summary

Daily Weather History Graph

Daily Weather History Graph

Search for Another Location

Airport or City:

Astronomy

Feb. 03, 2013 Rise Set
Actual Time 7:21 AM MST 5:05 PM MST
Civil Twilight 6:49 AM MST 5:37 PM MST
Nautical Twilight 6:12 AM MST 6:14 PM MST
Astronomical Twilight 5:37 AM MST 6:49 PM MST
Moon 12:53 AM MST (2/3) 10:41 AM MST (2/3)
Length of Visible Light 10h 48m
Length of Day
9h 43m
Waning Gibbous, 48% of the Moon is Illuminated
Feb 3
Waning Gibbous
Feb 10
New
Feb 17
First Quarter
Feb 25
Full
Mar 4
Last Quarter

Hourly Weather History & Observations

Time (MST) Temp. Windchill Dew Point Humidity Pressure Visibility Wind Dir Wind Speed Gust Speed Precip Events Conditions
12:15 AM 26.6 °F 18.2 °F 24.8 °F 93% 30.03 in 10.0 mi South 8.1 mph - N/A   Mostly Cloudy
12:35 AM 24.8 °F 16.9 °F 21.2 °F 86% 30.02 in 10.0 mi SSW 6.9 mph - N/A   Scattered Clouds
12:55 AM 21.2 °F 13.6 °F 19.4 °F 93% 30.01 in 10.0 mi SSW 5.8 mph - N/A   Clear
1:15 AM 24.8 °F 14.6 °F 19.4 °F 80% 29.99 in 10.0 mi SSW 10.4 mph - N/A   Clear
1:35 AM 23.0 °F 12.4 °F 19.4 °F 86% 29.98 in 10.0 mi South 10.4 mph - N/A   Clear
1:55 AM 24.8 °F 14.6 °F 21.2 °F 86% 29.97 in 10.0 mi SSW 10.4 mph - N/A   Clear
2:15 AM 26.6 °F 18.2 °F 21.2 °F 80% 29.96 in 10.0 mi SSW 8.1 mph - N/A   Clear
2:55 AM 26.6 °F 19.1 °F 19.4 °F 74% 29.94 in 10.0 mi WSW 6.9 mph - N/A   Clear
3:15 AM 28.4 °F 22.2 °F 21.2 °F 74% 29.94 in 10.0 mi WSW 5.8 mph - N/A   Clear
3:35 AM 28.4 °F 22.2 °F 21.2 °F 74% 29.93 in 10.0 mi South 5.8 mph - N/A   Clear
3:55 AM 30.2 °F 25.4 °F 23.0 °F 75% 29.92 in 10.0 mi SW 4.6 mph - N/A   Clear
4:15 AM 30.2 °F 24.3 °F 24.8 °F 80% 29.91 in 10.0 mi SSW 5.8 mph - N/A   Clear
4:35 AM 30.2 °F - 23.0 °F 75% 29.91 in 10.0 mi Calm Calm - N/A   Clear
4:55 AM 28.4 °F 21.2 °F 21.2 °F 74% 29.89 in 10.0 mi SSE 6.9 mph - N/A   Clear
5:35 AM 26.6 °F 20.0 °F 21.2 °F 80% 29.89 in 10.0 mi SSE 5.8 mph - N/A   Clear
5:55 AM 24.8 °F 16.9 °F 19.4 °F 80% 29.88 in 10.0 mi SE 6.9 mph - N/A   Clear
6:15 AM 24.8 °F 17.9 °F 21.2 °F 86% 29.86 in 10.0 mi SE 5.8 mph - N/A   Clear
6:35 AM 23.0 °F 17.0 °F 19.4 °F 86% 29.86 in 10.0 mi SE 4.6 mph - N/A   Clear
7:15 AM 23.0 °F 15.8 °F 17.6 °F 80% 29.84 in 10.0 mi SSE 5.8 mph - N/A   Clear
7:35 AM 24.8 °F 17.9 °F 21.2 °F 86% 29.84 in 10.0 mi SE 5.8 mph - N/A   Clear
7:55 AM 21.2 °F 11.7 °F 17.6 °F 86% 29.84 in 10.0 mi South 8.1 mph - N/A   Clear
8:15 AM 21.2 °F 10.9 °F 17.6 °F 86% 29.83 in 10.0 mi South 9.2 mph - N/A   Clear
8:35 AM 24.8 °F 16.1 °F 21.2 °F 86% 29.82 in 10.0 mi South 8.1 mph - N/A   Clear
8:55 AM 26.6 °F 22.6 °F 21.2 °F 80% 29.82 in 10.0 mi South 3.5 mph - N/A   Clear
9:15 AM 26.6 °F 20.0 °F 21.2 °F 80% 29.81 in 10.0 mi SSE 5.8 mph - N/A   Clear
9:35 AM 26.6 °F 22.6 °F 23.0 °F 86% 29.81 in 10.0 mi SE 3.5 mph - N/A   Clear
9:55 AM 28.4 °F 23.3 °F 24.8 °F 86% 29.81 in 10.0 mi South 4.6 mph - N/A   Clear
10:15 AM 28.4 °F 24.6 °F 24.8 °F 86% 29.81 in 10.0 mi SSE 3.5 mph - N/A   Clear
10:35 AM 30.2 °F 26.7 °F 24.8 °F 80% 29.81 in 10.0 mi South 3.5 mph - N/A   Clear
10:55 AM 30.2 °F 26.7 °F 24.8 °F 80% 29.81 in 10.0 mi South 3.5 mph - N/A   Clear
11:15 AM 33.8 °F 28.6 °F 26.6 °F 75% 29.80 in 10.0 mi South 5.8 mph - N/A   Clear
11:35 AM 33.8 °F 27.7 °F 26.6 °F 75% 29.79 in 10.0 mi West 6.9 mph - N/A   Clear
11:55 AM 39.2 °F 30.5 °F 26.6 °F 61% 29.78 in 10.0 mi West 16.1 mph 19.6 mph N/A   Clear
12:15 PM 39.2 °F 30.8 °F 26.6 °F 61% 29.78 in 10.0 mi WNW 15.0 mph - N/A   Clear
12:35 PM 39.2 °F 29.6 °F 26.6 °F 61% 29.79 in 10.0 mi WNW 19.6 mph 25.3 mph N/A   Clear
12:55 PM 39.2 °F 30.5 °F 26.6 °F 61% 29.79 in 10.0 mi WNW 16.1 mph 21.9 mph N/A   Clear
1:15 PM 39.2 °F 29.8 °F 28.4 °F 65% 29.78 in 10.0 mi WNW 18.4 mph 24.2 mph N/A   Clear
1:35 PM 37.4 °F 26.9 °F 28.4 °F 70% 29.78 in 10.0 mi WNW 20.7 mph 25.3 mph N/A   Clear
1:55 PM 37.4 °F 27.5 °F 26.6 °F 65% 29.79 in 10.0 mi WNW 18.4 mph 24.2 mph N/A   Partly Cloudy
2:15 PM 37.4 °F 27.5 °F 26.6 °F 65% 29.80 in 10.0 mi WNW 18.4 mph 23.0 mph N/A   Partly Cloudy
2:35 PM 37.4 °F 28.2 °F 26.6 °F 65% 29.80 in 10.0 mi WNW 16.1 mph - N/A   Clear
2:55 PM 35.6 °F 24.5 °F 28.4 °F 75% 29.81 in 10.0 mi WNW 20.7 mph 25.3 mph N/A   Clear
3:15 PM 35.6 °F 25.2 °F 26.6 °F 70% 29.82 in 10.0 mi WNW 18.4 mph 25.3 mph N/A   Clear
3:35 PM 35.6 °F 25.9 °F 28.4 °F 75% 29.83 in 10.0 mi WNW 16.1 mph - N/A   Clear
3:55 PM 35.6 °F 24.8 °F 26.6 °F 70% 29.83 in 10.0 mi NW 19.6 mph - N/A   Clear
4:15 PM 33.8 °F 23.5 °F 26.6 °F 75% 29.84 in 10.0 mi NW 16.1 mph - N/A   Clear
4:35 PM 32.0 °F 22.5 °F 26.6 °F 80% 29.85 in 10.0 mi NW 12.7 mph - N/A   Clear
4:55 PM 30.2 °F 20.8 °F 24.8 °F 80% 29.85 in 10.0 mi NW 11.5 mph - N/A   Clear
5:15 PM 28.4 °F 17.5 °F 24.8 °F 86% 29.86 in 10.0 mi NNW 13.8 mph - N/A   Clear
5:35 PM 28.4 °F 17.5 °F 23.0 °F 80% 29.87 in 10.0 mi NNW 13.8 mph - N/A   Clear
5:55 PM 28.4 °F 17.5 °F 21.2 °F 74% 29.88 in 10.0 mi NNW 13.8 mph - N/A   Clear
6:35 PM 24.8 °F 16.1 °F 19.4 °F 80% 29.90 in 10.0 mi NNE 8.1 mph - N/A   Clear
7:15 PM 23.0 °F 12.4 °F 17.6 °F 80% 29.91 in 10.0 mi NNW 10.4 mph - N/A   Clear
7:35 PM 19.4 °F 10.4 °F 15.8 °F 86% 29.92 in 10.0 mi NE 6.9 mph - N/A   Clear
7:55 PM 19.4 °F 14.3 °F 15.8 °F 86% 29.92 in 10.0 mi ENE 3.5 mph - N/A   Mostly Cloudy
8:15 PM 19.4 °F - 15.8 °F 86% 29.92 in 10.0 mi Calm Calm - N/A   Overcast
8:55 PM 21.2 °F - 17.6 °F 86% 29.92 in 10.0 mi Calm Calm - N/A   Overcast
9:15 PM 21.2 °F 13.6 °F 17.6 °F 86% 29.92 in 10.0 mi SSE 5.8 mph - N/A   Overcast
9:35 PM 21.2 °F 16.4 °F 17.6 °F 86% 29.92 in 10.0 mi South 3.5 mph - N/A   Overcast
10:15 PM 19.4 °F 12.8 °F 15.8 °F 86% 29.91 in 10.0 mi South 4.6 mph - N/A   Mostly Cloudy
10:35 PM 17.6 °F 10.7 °F 12.2 °F 79% 29.91 in 10.0 mi South 4.6 mph - N/A   Clear
11:15 PM 14.0 °F - 14.0 °F 100% 29.90 in 10.0 mi Calm Calm - N/A   Scattered Clouds
11:35 PM 15.8 °F 10.2 °F 10.4 °F 79% 29.91 in 10.0 mi WSW 3.5 mph - N/A   Overcast
11:55 PM 14.0 °F 5.1 °F 8.6 °F 79% 29.91 in 10.0 mi WSW 5.8 mph - N/A   Scattered Clouds